Location: DARK SKY Beskydy - Park tmavé oblohy, www.darkskybeskydy.cz
(49.4926°N, 18.5016°E)
Time: 10:22:28
(UTC+02:00)

Transit 4A - Pass Details

Date: 01 March 2024
Orbit: 871 x 971 km, 66.8° (Epoch: 24 April)

Event Time Altitude Azimuth Distance (km) Brightness Sun altitude
Exits shadow 02:17:58 22° 2° (N) 1,858 9.8 -38.8°
Drops below altitude 10° 02:20:44 10° 25° (NNE) 2,572 10.8 -38.5°
Sets 02:23:35 0° 37° (NE) 3,501 11.8 -38.1°
